DW3219 Weather Reports


time (UTC)temp
F
wind
direction
speed
knots
gust
knots
rain 1hr
in
rain 24hr
in
rain mn
in
humidity
%
barometer
mb
20260906224549 88 71 0.0 0.0 0.00 0.00 0.00 22 1001.9
20260906223047 87 73 0.0 2.6 0.00 0.00 0.00 25 1002.1
20260906221544 87 80 0.0 4.3 0.00 0.00 0.00 25 1002.4
20260906220031 87 89 0.0 0.9 0.00 0.00 0.00 25 1002.5
20260906214526 87 41 0.0 1.7 0.00 0.00 0.00 26 1002.9
20260906213025 86 42 0.0 3.5 0.00 0.00 0.00 26 1003.1
20260906211523 86 115 0.0 0.9 0.00 0.00 0.00 27 1003.2
20260906210019 85 39 0.0 0.0 0.00 0.00 0.00 29 1003.7
20260906204518 84 14 0.0 2.6 0.00 0.00 0.00 30 1003.9
20260906203015 83 242 0.0 5.2 0.00 0.00 0.00 31 1004.2
20260906201514 83 28 0.0 0.9 0.00 0.00 0.00 32 1004.4
20260906194553 81 344 0.0 1.7 0.00 0.00 0.00 34 1005.0
20260906193041 80 94 0.0 1.7 0.00 0.00 0.00 38 1005.3
20260906191537 80 64 0.0 4.3 0.00 0.00 0.00 39 1005.7
20260906190036 80 46 0.0 2.6 0.00 0.00 0.00 39 1006.1
20260906184538 78 259 0.0 1.7 0.00 0.00 0.00 40 1006.5
20260906183042 77 295 0.0 0.0 0.00 0.00 0.00 41 1006.8
20260906181543 77 355 0.0 0.0 0.00 0.00 0.00 45 1007.1
20260906180039 75 355 0.0 1.7 0.00 0.00 0.00 48 1007.5
20260906174536 73 50 0.0 0.0 0.00 0.00 0.00 49 1007.9
20260906173022 72 30 0.0 1.7 0.00 0.00 0.00 52 1008.1
20260906171522 72 277 0.0 2.6 0.00 0.00 0.00 50 1008.5
20260906170021 72 122 0.0 1.7 0.00 0.00 0.00 52 1008.7
20260906164532 70 111 0.0 1.7 0.00 0.00 0.00 53 1008.7
20260906163024 70 76 0.0 0.0 0.00 0.00 0.00 53 1008.9
20260906161520 69 71 0.0 0.0 0.00 0.00 0.00 54 1009.1
20260906160019 69 250 0.0 0.0 0.00 0.00 0.00 54 1009.0
20260906154519 69 252 0.0 0.0 0.00 0.00 0.00 54 1009.2
20260906153013 68 257 0.0 0.0 0.00 0.00 0.00 54 1009.3
20260906151507 65 257 0.0 0.0 0.00 0.00 0.00 59 1009.4
20260906150005 64 255 0.0 0.0 0.00 0.00 0.00 59 1009.7
20260906144507 63 257 0.0 0.0 0.00 0.00 0.00 62 1009.8
20260906143011 61 257 0.0 0.0 0.00 0.00 0.00 70 1009.8
20260906141511 60 254 0.0 0.9 0.00 0.00 0.00 71 1009.8
20260906140004 58 250 0.0 0.9 0.00 0.00 0.00 73 1009.8
20260906134504 57 249 0.0 0.0 0.00 0.00 0.00 74 1009.8
20260906133001 55 249 0.0 0.0 0.00 0.00 0.00 76 1009.7
20260906131544 55 249 0.0 0.0 0.00 0.00 0.00 76 1009.6
20260906130042 55 249 0.0 0.0 0.00 0.00 0.00 75 1009.7
20260906124530 55 249 0.0 0.0 0.00 0.00 0.00 76 1009.6
20260906123033 55 250 0.0 0.0 0.00 0.00 0.00 74 1009.5
20260906121503 56 250 0.0 0.0 0.00 0.00 0.00 73 1009.3
20260906120110 56 250 0.0 0.9 0.00 0.00 0.00 71 1009.3
20260906114547 57 254 0.0 4.3 0.00 0.00 0.00 71 1009.1
20260906113051 57 256 0.0 1.7 0.00 0.00 0.00 69 1009.2
20260906111543 58 256 0.0 1.7 0.00 0.00 0.00 68 1009.0
20260906110041 58 254 0.0 2.6 0.00 0.00 0.00 68 1009.4
20260906104539 59 259 0.0 0.0 0.00 0.00 0.00 66 1009.0
20260906103046 60 267 0.0 0.9 0.00 0.00 0.00 64 1008.9
20260906101533 61 273 0.0 0.0 0.00 0.00 0.00 61 1008.9
20260906100035 62 269 0.0 1.7 0.00 0.00 0.00 60 1008.9
20260906094519 62 273 0.0 0.0 0.00 0.00 0.00 59 1008.6
20260906093021 62 273 0.0 0.0 0.00 0.00 0.00 59 1008.6
20260906091518 62 270 0.0 2.6 0.00 0.00 0.00 60 1008.8
20260906090017 61 263 0.0 1.7 0.00 0.00 0.00 60 1008.6
20260906084518 61 263 0.0 2.6 0.00 0.00 0.00 61 1008.4
20260906083013 61 274 0.0 2.6 0.00 0.00 0.00 61 1008.2
20260906081513 61 256 0.0 0.9 0.00 0.00 0.00 60 1007.8
20260906080010 62 257 0.0 0.0 0.00 0.00 0.00 59 1008.0
20260906074550 62 261 0.0 1.7 0.00 0.00 0.00 57 1008.0
20260906073046 64 252 0.0 0.0 0.00 0.00 0.00 55 1008.1
20260906071525 64 261 0.0 2.6 0.00 0.00 0.00 53 1007.9
20260906070024 65 227 0.0 4.3 0.00 0.00 0.00 53 1007.7
20260906064517 64 253 0.0 2.6 0.00 0.00 0.00 53 1007.7
20260906063012 65 259 0.0 0.0 0.00 0.00 0.00 52 1007.5
20260906061520 66 261 0.0 0.0 0.00 0.00 0.00 51 1007.5
20260906060006 67 261 0.0 0.0 0.00 0.00 0.00 49 1007.5
20260906054508 68 269 0.0 0.9 0.00 0.00 0.00 46 1007.7
20260906053102 69 270 0.0 0.9 0.00 0.00 0.00 45 1007.6
20260906051605 69 263 0.0 4.3 0.00 0.00 0.00 44 1007.5
20260906050056 70 258 0.0 0.0 0.00 0.00 0.00 44 1007.5
20260906044543 70 248 0.0 0.9 0.00 0.00 0.00 44 1007.4
20260906043040 71 263 0.0 2.6 0.00 0.00 0.00 42 1007.4
20260906041538 71 273 0.0 1.7 0.00 0.00 0.00 42 1007.2
20260906040037 71 257 0.0 4.3 0.00 0.00 0.00 41 1007.1
20260906034535 72 257 0.0 3.5 0.00 0.00 0.00 41 1007.1
20260906033033 73 275 0.0 0.9 0.00 0.00 0.00 39 1006.9
20260906031528 73 269 0.0 2.6 0.00 0.00 0.00 39 1006.8
20260906030028 73 342 0.0 0.0 0.00 0.00 0.00 39 1006.7
20260906024509 74 350 0.0 0.0 0.00 0.00 0.00 39 1006.5
20260906023004 76 314 0.0 0.0 0.00 0.00 0.00 37 1006.3
20260906021546 77 316 0.0 0.0 0.00 0.00 0.00 34 1006.2
20260906020040 77 313 0.0 0.0 0.00 0.00 0.00 33 1006.1
20260906014527 78 56 0.0 0.9 0.00 0.00 0.00 33 1005.9
20260906013034 79 329 0.0 4.3 0.00 0.00 0.00 32 1005.9
20260906011519 80 350 0.0 3.5 0.00 0.00 0.00 31 1005.9
20260906010018 80 34 0.9 7.8 0.00 0.00 0.00 30 1005.9
20260906004515 81 26 0.0 13.0 0.00 0.00 0.00 30 1005.7
20260906003019 83 56 0.0 9.6 0.00 0.00 0.00 28 1005.6
20260906001512 84 21 0.0 7.0 0.00 0.00 0.00 26 1005.5
20260906000007 85 50 0.0 3.5 0.00 0.00 0.00 26 1005.6
20260905234554 86 70 0.0 3.5 0.00 0.00 0.00 25 1005.7
20260905233053 86 351 0.0 4.3 0.00 0.00 0.00 25 1005.7
20260905231550 85 90 0.0 0.9 0.00 0.00 0.00 25 1005.7
20260905230049 85 21 0.0 0.0 0.00 0.00 0.00 23 1005.8